Waarnemingen

Advertentie
Mijn weer
Lycksele, Zweden (2261): temperatuur & dauwpunt: 17.07.2018 07:00:00 - 23.07.2018 07:00:00 (CEST)Lycksele, Zweden (2261): windsnelheid & windstoten: 17.07.2018 07:00:00 - 23.07.2018 07:00:00 (CEST)Lycksele, Zweden (2261): windrichting: 17.07.2018 07:00:00 - 23.07.2018 07:00:00 (CEST)Lycksele, Zweden (2261): luchtdruk: 17.07.2018 07:00:00 - 23.07.2018 07:00:00 (CEST)Lycksele, Zweden (2261): zicht: 17.07.2018 07:00:00 - 23.07.2018 07:00:00 (CEST)Lycksele, Zweden (2261): neerslag: 17.07.2018 07:00:00 - 23.07.2018 07:00:00 (CEST)
Datum & Tijd tt [°C] td [°C] ff [km/u] ff [kn] fx [km/u] fx [kn] dd ppp [hPa] vv [km] rr [mm]
23.07.2018 07:00:00 16,1 16,1 0 0 5 3 N 1006,8 0,3 0,0
23.07.2018 06:00:00 14,4 14,4 2 1 5 3 Z 1006,9 0,4 0,0
23.07.2018 05:00:00 13,5 13,5 2 1 4 2 W 1006,9 0,1 0,0
23.07.2018 04:00:00 13,2 13,2 0 0 3 2 N 1006,6 0,2 0,0
23.07.2018 03:00:00 12,2 12,2 0 0 6 4 N 1006,3 0,6 0,0
23.07.2018 02:00:00 14,1 14,1 3 2 9 5 Z 1006,0 4,3 0,0
23.07.2018 01:00:00 15,7 15,7 5 3 16 8 ZZO 1005,7 7 0,0
23.07.2018 00:00:00 16,7 16,7 5 3 11 6 ZZO 1005,3 11 0,0
22.07.2018 23:00:00 18,3 17,5 8 5 13 7 ZO 1005,1 27 0,0
22.07.2018 22:00:00 18,9 17,6 9 5 10 5 ZO 1004,4 31 0,0
22.07.2018 21:00:00 18,5 17,7 0 0 6 3 N 1004,0 40 0,0
22.07.2018 20:00:00 20,6 16,0 4 2 13 7 W 1003,6 44 0,0
22.07.2018 19:00:00 22,8 17,3 5 3 16 9 W 1003,2 32 0,0
22.07.2018 18:00:00 22,7 18,0 5 3 11 6 ZW 1003,0 26 0,0
22.07.2018 17:00:00 20,6 18,4 3 2 7 4 W 1003,3 29 0,0
22.07.2018 16:00:00 18,8 18,3 3 1 7 4 WZW 1003,3 21 0,4
22.07.2018 15:00:00 18,6 17,3 4 2 19 10 ONO 1003,3 14 0,4
22.07.2018 14:00:00 18,8 17,6 6 4 31 17 Z 1003,5 31 2,5
22.07.2018 13:00:00 23,2 15,5 14 8 22 12 NW 1001,7 38 0,0
22.07.2018 12:00:00 24,9 15,2 7 4 21 11 N 1001,6 31 0,0
22.07.2018 11:00:00 24,3 15,5 6 4 21 12 NW 1002,1 27 0,0
22.07.2018 10:00:00 23,7 16,0 8 4 17 9 N 1002,5 31 0,0
22.07.2018 09:00:00 20,9 15,4 8 5 15 8 N 1003,2 37 0,0
22.07.2018 08:00:00 19,5 15,4 6 3 9 5 N 1003,6 31 0,0
22.07.2018 07:00:00 16,7 14,3 3 2 6 3 W 1003,6 31 0,0
22.07.2018 06:00:00 15,6 14,3 4 2 9 5 W 1003,8 36 0,0
22.07.2018 05:00:00 14,1 14,1 4 2 7 4 W 1004,2 19 0,0
22.07.2018 04:00:00 12,2 12,2 0 0 5 3 N 1004,4 24 0,0
22.07.2018 03:00:00 12,1 12,1 0 0 5 3 N 1004,6 22 0,0
22.07.2018 02:00:00 12,5 12,2 0 0 5 3 N 1004,7 26 0,0
22.07.2018 01:00:00 13,6 13,1 3 2 8 4 WZW 1004,8 30 0,0
22.07.2018 00:00:00 14,6 13,5 0 0 9 5 N 1005,1 36 0,0
21.07.2018 23:00:00 18,0 14,9 4 2 7 4 NNO 1004,6 50 0,0
21.07.2018 22:00:00 18,5 13,8 0 0 14 8 N 1004,4 9 0,0
21.07.2018 21:00:00 20,9 13,6 10 6 16 9 N 1004,3 45 0,0
21.07.2018 20:00:00 21,0 13,7 8 4 35 19 ONO 1004,5 48 0,0
21.07.2018 19:00:00 21,8 12,6 22 12 40 22 NNO 1005,1 48 0,0
21.07.2018 18:00:00 24,1 14,5 10 5 27 15 ZO 1004,2 43 0,0
21.07.2018 17:00:00 24,9 14,1 23 12 35 19 ZO 1003,9 41 0,0
21.07.2018 16:00:00 27,3 12,1 18 10 24 13 OZO 1003,8 41 0,0
21.07.2018 15:00:00 28,2 11,7 2 1 10 6 ZZW 1003,8 38 0,0
21.07.2018 14:00:00 28,2 11,3 7 4 13 7 NNW 1004,0 32 0,0
21.07.2018 13:00:00 27,2 12,0 5 3 21 11 Z 1004,8 38 0,0
21.07.2018 12:00:00 27,1 12,0 6 3 16 8 ZW 1005,5 36 0,0
21.07.2018 11:00:00 26,3 12,4 6 3 16 9 ZZO 1006,1 42 0,0
21.07.2018 10:00:00 26,3 14,4 3 2 9 5 NNO 1006,5 32 0,0
21.07.2018 09:00:00 22,4 15,3 3 2 6 4 NW 1007,3 31 0,0
21.07.2018 08:00:00 20,7 15,3 0 0 4 2 N 1007,7 37 0,0
21.07.2018 07:00:00 19,7 14,9 0 0 4 2 N 1008,3 30 0,0
21.07.2018 06:00:00 15,9 14,8 3 1 3 2 W 1009,0 29 0,0
21.07.2018 05:00:00 14,8 14,0 0 0 3 2 N 1009,4 29 0,0
21.07.2018 04:00:00 14,5 14,2 0 0 3 2 N 1009,5 29 0,0
21.07.2018 03:00:00 14,9 14,1 0 0 2 1 N 1009,5 32 0,0
21.07.2018 02:00:00 14,9 14,4 0 0 4 2 N 1009,9 32 0,0
21.07.2018 01:00:00 14,8 14,6 0 0 4 2 N 1010,2 26 0,0
21.07.2018 00:00:00 16,3 14,7 0 0 5 3 N 1010,3 37 0,0
20.07.2018 23:00:00 17,9 14,4 0 0 3 1 N 1010,3 43 0,0
20.07.2018 22:00:00 20,8 15,6 3 1 14 7 ZO 1010,0 46 0,0
20.07.2018 21:00:00 24,5 13,1 8 4 16 9 ZZO 1009,5 42 0,0
20.07.2018 20:00:00 25,4 12,9 12 6 24 13 ZZO 1009,4 41 0,0
20.07.2018 19:00:00 24,0 16,3 5 3 20 11 N 1009,4 38 0,0
20.07.2018 18:00:00 29,2 11,3 16 9 25 13 OZO 1008,8 36 0,0
20.07.2018 17:00:00 28,3 11,4 14 8 26 14 OZO 1009,2 45 0,0
20.07.2018 16:00:00 29,2 10,8 9 5 27 15 ZO 1009,4 41 0,0
20.07.2018 15:00:00 28,9 10,5 10 5 18 10 OZO 1010,0 39 0,0
20.07.2018 14:00:00 29,3 11,8 9 5 24 13 OZO 1010,2 34 0,0
20.07.2018 13:00:00 29,1 11,2 8 4 19 10 ZZO 1010,6 34 0,0
20.07.2018 12:00:00 28,1 11,6 8 4 17 9 Z 1011,2 33 0,0
20.07.2018 11:00:00 26,7 12,4 6 3 12 7 ZZO 1011,8 29 0,0
20.07.2018 10:00:00 25,5 14,3 4 2 10 5 NW 1012,2 28 0,0
20.07.2018 09:00:00 23,0 15,6 4 2 11 6 NO 1012,8 29 0,0
20.07.2018 08:00:00 21,0 15,5 5 3 14 7 NNO 1013,1 23 0,0
20.07.2018 07:00:00 19,1 15,6 4 2 10 5 WNW 1013,7 27 0,0
20.07.2018 06:00:00 17,4 15,4 2 1 6 4 W 1014,2 22 0,0
20.07.2018 05:00:00 12,6 11,8 0 0 2 1 N 1014,7 21 0,0
20.07.2018 04:00:00 10,8 10,8 0 0 3 1 N 1015,0 14 0,0
20.07.2018 03:00:00 11,2 11,2 0 0 2 1 N 1014,9 14 0,0
20.07.2018 02:00:00 12,1 11,9 0 0 2 1 N 1014,9 16 0,0
20.07.2018 01:00:00 13,0 13,0 0 0 3 1 N 1014,9 7 0,0
20.07.2018 00:00:00 15,0 14,0 3 1 5 3 ZW 1014,8 21 0,0
19.07.2018 23:00:00 16,9 14,0 3 1 9 5 ZZO 1014,3 28 0,0
19.07.2018 22:00:00 19,5 14,5 0 0 6 3 N 1014,0 37 0,0
19.07.2018 21:00:00 23,6 14,6 3 2 13 7 ZW 1013,4 37 0,0
19.07.2018 20:00:00 26,8 9,2 6 3 20 11 ZZO 1012,7 46 0,0
19.07.2018 19:00:00 28,7 8,4 13 7 19 11 ZO 1012,2 42 0,0
19.07.2018 18:00:00 29,1 7,6 12 7 31 17 ZO 1012,2 42 0,0
19.07.2018 17:00:00 30,0 7,8 17 9 34 19 ZO 1012,2 38 0,0
19.07.2018 16:00:00 29,8 8,2 14 8 28 15 ZZO 1012,6 37 0,0
19.07.2018 15:00:00 30,3 9,8 14 8 31 17 ZO 1012,6 37 0,0
19.07.2018 14:00:00 29,7 9,8 14 8 29 16 ZO 1012,8 41 0,0
19.07.2018 13:00:00 29,8 10,4 16 8 33 18 ZO 1013,2 31 0,0
19.07.2018 12:00:00 29,2 10,3 14 8 27 14 ZO 1013,5 37 0,0
19.07.2018 11:00:00 28,8 11,8 14 8 26 14 ZO 1013,6 42 0,0
19.07.2018 10:00:00 27,2 12,8 14 8 19 11 OZO 1013,9 42 0,0
19.07.2018 09:00:00 25,0 13,2 8 4 13 7 OZO 1014,1 31 0,0
19.07.2018 08:00:00 23,1 13,3 9 5 14 7 OZO 1014,3 34 0,0
19.07.2018 07:00:00 21,0 13,7 6 4 11 6 OZO 1014,5 31 0,0
19.07.2018 06:00:00 18,4 15,3 0 0 1 1 N 1014,9 25 0,0
19.07.2018 05:00:00 14,1 12,7 0 0 2 1 N 1015,3 25 0,0
19.07.2018 04:00:00 12,3 12,1 0 0 2 1 N 1015,7 19 0,0
19.07.2018 03:00:00 13,0 12,4 0 0 2 1 N 1015,6 21 0,0
19.07.2018 02:00:00 14,5 13,2 0 0 3 1 N 1015,5 23 0,0
19.07.2018 01:00:00 16,6 13,5 0 0 7 4 N 1015,3 34 0,0
19.07.2018 00:00:00 19,3 13,7 4 2 10 5 Z 1015,0 41 0,0
18.07.2018 23:00:00 22,2 14,1 7 4 12 7 ZZO 1014,7 48 0,0
18.07.2018 22:00:00 23,6 13,5 7 4 16 8 ZO 1014,3 39 0,0
18.07.2018 21:00:00 27,2 12,4 11 6 25 14 ZZO 1013,8 43 0,0
18.07.2018 20:00:00 28,9 11,0 12 7 32 17 ZZO 1013,5 48 0,0
18.07.2018 19:00:00 30,1 11,1 19 10 28 15 ZO 1013,4 38 0,0
18.07.2018 18:00:00 30,5 11,0 19 11 38 20 ZZO 1013,5 31 0,0
18.07.2018 17:00:00 30,5 11,0 19 11 32 17 ZO 1013,5 42 0,0
18.07.2018 16:00:00 32,5 10,6 20 11 34 18 ZO 1013,5 37 0,0
18.07.2018 15:00:00 31,7 10,5 21 12 35 19 ZO 1014,0 37 0,0
18.07.2018 14:00:00 30,7 10,6 20 11 31 17 OZO 1014,7 36 0,0
18.07.2018 13:00:00 30,0 11,5 19 10 30 16 ZO 1015,3 39 0,0
18.07.2018 12:00:00 30,3 12,2 17 9 26 14 ZO 1015,5 40 0,0
18.07.2018 11:00:00 29,7 13,5 11 6 22 12 ZO 1016,3 41 0,0
18.07.2018 10:00:00 27,8 13,7 5 3 10 6 ZZO 1016,8 41 0,0
18.07.2018 09:00:00 25,5 13,7 4 2 9 5 WNW 1017,5 36 0,0
18.07.2018 08:00:00 22,9 14,2 0 0 8 4 N 1018,0 28 0,0
18.07.2018 07:00:00 20,1 14,5 0 0 3 2 N 1018,3 36 0,0
18.07.2018 06:00:00 17,0 13,9 0 0 2 1 N 1018,7 40 0,0
18.07.2018 05:00:00 13,2 11,4 0 0 6 3 N 1019,1 40 0,0
18.07.2018 04:00:00 11,8 11,5 0 0 2 1 N 1019,2 37 0,0
18.07.2018 03:00:00 12,7 11,8 0 0 2 1 N 1019,1 46 0,0
18.07.2018 02:00:00 13,6 13,1 0 0 6 3 N 1019,0 43 0,0
18.07.2018 01:00:00 14,6 12,8 0 0 4 2 N 1018,7 50 0,0
18.07.2018 00:00:00 17,6 14,7 2 1 8 5 ZO 1017,9 50 0,0
17.07.2018 23:00:00 21,2 12,9 5 3 9 5 Z 1017,2 50 0,0
17.07.2018 22:00:00 23,8 12,4 7 4 16 9 ZZO 1016,8 42 0,0
17.07.2018 21:00:00 26,8 11,7 15 8 25 13 ZO 1016,2 39 0,0
17.07.2018 20:00:00 28,4 11,9 19 10 34 19 ZZO 1015,7 40 0,0
17.07.2018 19:00:00 29,7 12,2 23 12 33 18 ZO 1015,3 37 0,0
17.07.2018 18:00:00 30,8 9,6 12 6 26 14 ZZO 1015,1 38 0,0
17.07.2018 17:00:00 31,6 9,8 12 7 21 12 OZO 1015,2 42 0,0
17.07.2018 16:00:00 31,5 9,1 11 6 19 10 OZO 1015,4 36 0,0
17.07.2018 15:00:00 31,6 9,8 11 6 20 11 ZO 1015,8 33 0,0
17.07.2018 14:00:00 30,7 10,1 10 5 21 11 ZO 1016,2 33 0,0
17.07.2018 13:00:00 30,8 11,2 7 4 16 9 WZW 1016,4 32 0,0
17.07.2018 12:00:00 30,2 10,2 4 2 14 7 O 1016,8 37 0,0
17.07.2018 11:00:00 29,0 10,2 8 4 14 8 OZO 1017,1 41 0,0
17.07.2018 10:00:00 27,7 10,8 5 3 9 5 O 1017,3 35 0,0
17.07.2018 09:00:00 25,8 12,6 5 3 10 5 OZO 1017,7 35 0,0
17.07.2018 08:00:00 22,8 13,8 4 2 8 4 OZO 1018,0 42 0,0
17.07.2018 07:00:00 20,3 13,7 3 2 6 3 ZO 1018,1 45 0,0

tt = temperatuur
td = dauwpunt
ff = windsnelheid
fx = windstoten
dd = windrichting
ppp = luchtdruk
vv = zicht
rr = neerslag

Weerstations in de omgeving